Year,Month,Day,Hour,Minute,Value (Times are PST for temperature in C)
2014,04,13,00,00,4.40
2014,04,13,00,01,4.40
2014,04,13,00,02,4.40
2014,04,13,00,03,4.40
2014,04,13,00,04,4.40
2014,04,13,00,05,4.40
2014,04,13,00,06,4.40
2014,04,13,00,07,4.40
2014,04,13,00,08,4.40
2014,04,13,00,09,4.30
2014,04,13,00,10,4.30
2014,04,13,00,11,4.30
2014,04,13,00,12,4.30
2014,04,13,00,13,4.30
2014,04,13,00,14,4.30
2014,04,13,00,15,4.20
2014,04,13,00,16,4.20
2014,04,13,00,17,4.20
2014,04,13,00,18,4.20
2014,04,13,00,19,4.20
2014,04,13,00,20,4.20
2014,04,13,00,21,4.20
2014,04,13,00,22,4.10
2014,04,13,00,23,4.10
2014,04,13,00,24,4.10
2014,04,13,00,25,4.10
2014,04,13,00,26,4.00
2014,04,13,00,27,4.00
2014,04,13,00,28,4.00
2014,04,13,00,29,3.90
2014,04,13,00,30,3.90
2014,04,13,00,31,3.90
2014,04,13,00,32,3.90
2014,04,13,00,33,3.90
2014,04,13,00,34,3.90
2014,04,13,00,35,3.80
2014,04,13,00,36,3.80
2014,04,13,00,37,3.80
2014,04,13,00,38,3.80
2014,04,13,00,39,3.80
2014,04,13,00,40,3.80
2014,04,13,00,41,3.80
2014,04,13,00,42,3.80
2014,04,13,00,43,3.80
2014,04,13,00,44,3.70
2014,04,13,00,45,3.70
2014,04,13,00,46,3.70
2014,04,13,00,47,3.70
2014,04,13,00,48,3.70
2014,04,13,00,49,3.70
2014,04,13,00,50,3.70
2014,04,13,00,51,3.70
2014,04,13,00,52,3.70
2014,04,13,00,53,3.60
2014,04,13,00,54,3.60
2014,04,13,00,55,3.60
2014,04,13,00,56,3.60
2014,04,13,00,57,3.60
2014,04,13,00,58,3.60
2014,04,13,00,59,3.60
2014,04,13,01,00,3.60
2014,04,13,01,01,3.60
2014,04,13,01,02,3.60
2014,04,13,01,03,3.60
2014,04,13,01,04,3.60
2014,04,13,01,05,3.60
2014,04,13,01,06,3.60
2014,04,13,01,07,3.50
2014,04,13,01,08,3.50
2014,04,13,01,09,3.50
2014,04,13,01,10,3.50
2014,04,13,01,11,3.40
2014,04,13,01,12,3.40
2014,04,13,01,13,3.40
2014,04,13,01,14,3.40
2014,04,13,01,15,3.40
2014,04,13,01,16,3.40
2014,04,13,01,17,3.40
2014,04,13,01,18,3.30
2014,04,13,01,19,3.30
2014,04,13,01,20,3.30
2014,04,13,01,21,3.30
2014,04,13,01,22,3.30
2014,04,13,01,23,3.30
2014,04,13,01,24,3.30
2014,04,13,01,25,3.20
2014,04,13,01,26,3.20
2014,04,13,01,27,3.20
2014,04,13,01,28,3.20
2014,04,13,01,29,3.20
2014,04,13,01,30,3.20
2014,04,13,01,31,3.20
2014,04,13,01,32,3.20
2014,04,13,01,33,3.20
2014,04,13,01,34,3.20
2014,04,13,01,35,3.20
2014,04,13,01,36,3.20
2014,04,13,01,37,3.10
2014,04,13,01,38,3.10
2014,04,13,01,39,3.10
2014,04,13,01,40,3.10
2014,04,13,01,41,3.10
2014,04,13,01,42,3.10
2014,04,13,01,43,3.10
2014,04,13,01,44,3.10
2014,04,13,01,45,3.10
2014,04,13,01,46,3.00
2014,04,13,01,47,3.00
2014,04,13,01,48,3.00
2014,04,13,01,49,3.00
2014,04,13,01,50,2.90
2014,04,13,01,51,2.90
2014,04,13,01,52,2.90
2014,04,13,01,53,2.90
2014,04,13,01,54,2.90
2014,04,13,01,55,2.90
2014,04,13,01,56,2.80
2014,04,13,01,57,2.80
2014,04,13,01,58,2.80
2014,04,13,01,59,2.80
2014,04,13,02,00,2.80
2014,04,13,02,01,2.70
2014,04,13,02,02,2.70
2014,04,13,02,03,2.70
2014,04,13,02,04,2.70
2014,04,13,02,05,2.70
2014,04,13,02,06,2.70
2014,04,13,02,07,2.70
2014,04,13,02,08,2.70
2014,04,13,02,09,2.70
2014,04,13,02,10,2.70
2014,04,13,02,11,2.60
2014,04,13,02,12,2.60
2014,04,13,02,13,2.60
2014,04,13,02,14,2.60
2014,04,13,02,15,2.60
2014,04,13,02,16,2.60
2014,04,13,02,17,2.60
2014,04,13,02,18,2.50
2014,04,13,02,19,2.50
2014,04,13,02,20,2.50
2014,04,13,02,21,2.50
2014,04,13,02,22,2.40
2014,04,13,02,23,2.40
2014,04,13,02,24,2.40
2014,04,13,02,25,2.40
2014,04,13,02,26,2.40
2014,04,13,02,27,2.40
2014,04,13,02,28,2.40
2014,04,13,02,29,2.30
2014,04,13,02,30,2.30
2014,04,13,02,31,2.30
2014,04,13,02,32,2.30
2014,04,13,02,33,2.30
2014,04,13,02,34,2.30
2014,04,13,02,35,2.30
2014,04,13,02,36,2.30
2014,04,13,02,37,2.30
2014,04,13,02,38,2.30
2014,04,13,02,39,2.30
2014,04,13,02,40,2.20
2014,04,13,02,41,2.20
2014,04,13,02,42,2.20
2014,04,13,02,43,2.20
2014,04,13,02,44,2.20
2014,04,13,02,45,2.20
2014,04,13,02,46,2.20
2014,04,13,02,47,2.10
2014,04,13,02,48,2.10
2014,04,13,02,49,2.10
2014,04,13,02,50,2.10
2014,04,13,02,51,2.10
2014,04,13,02,52,2.10
2014,04,13,02,53,2.10
2014,04,13,02,54,2.10
2014,04,13,02,55,2.00
2014,04,13,02,56,2.00
2014,04,13,02,57,2.00
2014,04,13,02,58,2.00
2014,04,13,02,59,2.00
2014,04,13,03,00,1.90
2014,04,13,03,01,1.90
2014,04,13,03,02,1.90
2014,04,13,03,03,1.90
2014,04,13,03,04,1.90
2014,04,13,03,05,1.90
2014,04,13,03,06,1.90
2014,04,13,03,07,1.90
2014,04,13,03,08,1.80
2014,04,13,03,09,1.80
2014,04,13,03,10,1.80
2014,04,13,03,11,1.80
2014,04,13,03,12,1.80
2014,04,13,03,13,1.80
2014,04,13,03,14,1.80
2014,04,13,03,15,1.80
2014,04,13,03,16,1.80
2014,04,13,03,17,1.80
2014,04,13,03,18,1.70
2014,04,13,03,19,1.70
2014,04,13,03,20,1.70
2014,04,13,03,21,1.70
2014,04,13,03,22,1.70
2014,04,13,03,23,1.70
2014,04,13,03,24,1.70
2014,04,13,03,25,1.70
2014,04,13,03,26,1.70
2014,04,13,03,27,1.70
2014,04,13,03,28,1.70
2014,04,13,03,29,1.70
2014,04,13,03,30,1.60
2014,04,13,03,31,1.60
2014,04,13,03,32,1.60
2014,04,13,03,33,1.60
2014,04,13,03,34,1.60
2014,04,13,03,35,1.60
2014,04,13,03,36,1.50
2014,04,13,03,37,1.50
2014,04,13,03,38,1.50
2014,04,13,03,39,1.50
2014,04,13,03,40,1.50
2014,04,13,03,41,1.40
2014,04,13,03,42,1.40
2014,04,13,03,43,1.40
2014,04,13,03,44,1.40
2014,04,13,03,45,1.40
2014,04,13,03,46,1.40
2014,04,13,03,47,1.40
2014,04,13,03,48,1.40
2014,04,13,03,49,1.30
2014,04,13,03,50,1.30
2014,04,13,03,51,1.30
2014,04,13,03,52,1.30
2014,04,13,03,53,1.30
2014,04,13,03,54,1.30
2014,04,13,03,55,1.30
2014,04,13,03,56,1.30
2014,04,13,03,57,1.20
2014,04,13,03,58,1.20
2014,04,13,03,59,1.20
2014,04,13,04,00,1.20
2014,04,13,04,01,1.20
2014,04,13,04,02,1.20
2014,04,13,04,03,1.20
2014,04,13,04,04,1.20
2014,04,13,04,05,1.20
2014,04,13,04,06,1.20
2014,04,13,04,07,1.20
2014,04,13,04,08,1.20
2014,04,13,04,09,1.20
2014,04,13,04,10,1.20
2014,04,13,04,11,1.20
2014,04,13,04,12,1.20
2014,04,13,04,13,1.10
2014,04,13,04,14,1.10
2014,04,13,04,15,1.10
2014,04,13,04,16,1.10
2014,04,13,04,17,1.10
2014,04,13,04,18,1.10
2014,04,13,04,19,1.00
2014,04,13,04,20,1.00
2014,04,13,04,21,1.00
2014,04,13,04,22,1.00
2014,04,13,04,23,1.00
2014,04,13,04,24,1.00
2014,04,13,04,25,0.90
2014,04,13,04,26,0.90
2014,04,13,04,27,0.90
2014,04,13,04,28,0.90
2014,04,13,04,29,0.90
2014,04,13,04,30,0.80
2014,04,13,04,31,0.80
2014,04,13,04,32,0.80
2014,04,13,04,33,0.80
2014,04,13,04,34,0.80
2014,04,13,04,35,0.80
2014,04,13,04,36,0.80
2014,04,13,04,37,0.80
2014,04,13,04,38,0.80
2014,04,13,04,39,0.80
2014,04,13,04,40,0.80
2014,04,13,04,41,0.80
2014,04,13,04,42,0.80
2014,04,13,04,43,0.80
2014,04,13,04,44,0.80
2014,04,13,04,45,0.80
2014,04,13,04,46,0.80
2014,04,13,04,47,0.80
2014,04,13,04,48,0.80
2014,04,13,04,49,0.70
2014,04,13,04,50,0.70
2014,04,13,04,51,0.70
2014,04,13,04,52,0.70
2014,04,13,04,53,0.70
2014,04,13,04,54,0.70
2014,04,13,04,55,0.70
2014,04,13,04,56,0.70
2014,04,13,04,57,0.70
2014,04,13,04,58,0.70
2014,04,13,04,59,0.70
2014,04,13,05,00,0.60
2014,04,13,05,01,0.60
2014,04,13,05,02,0.60
2014,04,13,05,03,0.60
2014,04,13,05,04,0.60
2014,04,13,05,05,0.60
2014,04,13,05,06,0.60
2014,04,13,05,07,0.50
2014,04,13,05,08,0.50
2014,04,13,05,09,0.50
2014,04,13,05,10,0.50
2014,04,13,05,11,0.50
2014,04,13,05,12,0.50
2014,04,13,05,13,0.50
2014,04,13,05,14,0.50
2014,04,13,05,15,0.50
2014,04,13,05,16,0.50
2014,04,13,05,17,0.50
2014,04,13,05,18,0.50
2014,04,13,05,19,0.40
2014,04,13,05,20,0.40
2014,04,13,05,21,0.40
2014,04,13,05,22,0.40
2014,04,13,05,23,0.40
2014,04,13,05,24,0.40
2014,04,13,05,25,0.40
2014,04,13,05,26,0.40
2014,04,13,05,27,0.40
2014,04,13,05,28,0.40
2014,04,13,05,29,0.30
2014,04,13,05,30,0.30
2014,04,13,05,31,0.30
2014,04,13,05,32,0.30
2014,04,13,05,33,0.30
2014,04,13,05,34,0.30
2014,04,13,05,35,0.30
2014,04,13,05,36,0.30
2014,04,13,05,37,0.30
2014,04,13,05,38,0.30
2014,04,13,05,39,0.30
2014,04,13,05,40,0.30
2014,04,13,05,41,0.30
2014,04,13,05,42,0.20
2014,04,13,05,43,0.20
2014,04,13,05,44,0.20
2014,04,13,05,45,0.20
2014,04,13,05,46,0.20
2014,04,13,05,47,0.20
2014,04,13,05,48,0.20
2014,04,13,05,49,0.20
2014,04,13,05,50,0.20
2014,04,13,05,51,0.20
2014,04,13,05,52,0.20
2014,04,13,05,53,0.20
2014,04,13,05,54,0.20
2014,04,13,05,55,0.20
2014,04,13,05,56,0.20
2014,04,13,05,57,0.20
2014,04,13,05,58,0.20
2014,04,13,05,59,0.20
2014,04,13,06,00,0.20
2014,04,13,06,01,0.10
2014,04,13,06,02,0.10
2014,04,13,06,03,0.10
2014,04,13,06,04,0.10
2014,04,13,06,05,0.10
2014,04,13,06,06,0.10
2014,04,13,06,07,0.10
2014,04,13,06,08,0.10
2014,04,13,06,09,0.10
2014,04,13,06,10,0.10
2014,04,13,06,11,0.10
2014,04,13,06,12,0.10
2014,04,13,06,13,0.10
2014,04,13,06,14,0.10
2014,04,13,06,15,0.10
2014,04,13,06,16,0.10
2014,04,13,06,17,0.10
2014,04,13,06,18,0.10
2014,04,13,06,19,0.10
2014,04,13,06,20,0.10
2014,04,13,06,21,0.10
2014,04,13,06,22,0.00
2014,04,13,06,23,0.00
2014,04,13,06,24,0.00
2014,04,13,06,25,0.00
2014,04,13,06,26,0.00
2014,04,13,06,27,0.00
2014,04,13,06,28,0.00
2014,04,13,06,29,0.00
2014,04,13,06,30,-0.10
2014,04,13,06,31,-0.10
2014,04,13,06,32,-0.10
2014,04,13,06,33,-0.10
2014,04,13,06,34,-0.10
2014,04,13,06,35,-0.10
2014,04,13,06,36,-0.10
2014,04,13,06,37,-0.10
2014,04,13,06,38,-0.10
2014,04,13,06,39,-0.20
2014,04,13,06,40,-0.20
2014,04,13,06,41,-0.20
2014,04,13,06,42,-0.20
2014,04,13,06,43,-0.20
2014,04,13,06,44,-0.20
2014,04,13,06,45,-0.20
2014,04,13,06,46,-0.20
2014,04,13,06,47,-0.20
2014,04,13,06,48,-0.20
2014,04,13,06,49,-0.20
2014,04,13,06,50,-0.20
2014,04,13,06,51,-0.20
2014,04,13,06,52,-0.20
2014,04,13,06,53,-0.20
2014,04,13,06,54,-0.20
2014,04,13,06,55,-0.20
2014,04,13,06,56,-0.20
2014,04,13,06,57,-0.20
2014,04,13,06,58,-0.20
2014,04,13,06,59,-0.20
2014,04,13,07,00,-0.20
2014,04,13,07,01,-0.20
2014,04,13,07,02,-0.20
2014,04,13,07,03,-0.20
2014,04,13,07,04,-0.20
2014,04,13,07,05,-0.20
2014,04,13,07,06,-0.20
2014,04,13,07,07,-0.20
2014,04,13,07,08,-0.20
2014,04,13,07,09,-0.20
2014,04,13,07,10,-0.20
2014,04,13,07,11,-0.20
2014,04,13,07,12,-0.20
2014,04,13,07,13,-0.20
2014,04,13,07,14,-0.20
2014,04,13,07,15,-0.20
2014,04,13,07,16,-0.20
2014,04,13,07,17,-0.20
2014,04,13,07,18,-0.20
2014,04,13,07,19,-0.20
2014,04,13,07,20,-0.20
2014,04,13,07,21,-0.20
2014,04,13,07,22,-0.20
2014,04,13,07,23,-0.20
2014,04,13,07,24,-0.20
2014,04,13,07,25,-0.20
2014,04,13,07,26,-0.20
2014,04,13,07,27,-0.20
2014,04,13,07,28,-0.20
2014,04,13,07,29,-0.20
2014,04,13,07,30,-0.20
2014,04,13,07,31,-0.10
2014,04,13,07,32,-0.10
2014,04,13,07,33,-0.10
2014,04,13,07,34,-0.10
2014,04,13,07,35,-0.10
2014,04,13,07,36,-0.10
2014,04,13,07,37,-0.10
2014,04,13,07,38,-0.10
2014,04,13,07,39,-0.10
2014,04,13,07,40,-0.10
2014,04,13,07,41,-0.10
2014,04,13,07,42,-0.10
2014,04,13,07,43,-0.10
2014,04,13,07,44,-0.10
2014,04,13,07,45,-0.10
2014,04,13,07,46,-0.10
2014,04,13,07,47,-0.10
2014,04,13,07,48,-0.10
2014,04,13,07,49,-0.10
2014,04,13,07,50,-0.10
2014,04,13,07,51,-0.10
2014,04,13,07,52,-0.10
2014,04,13,07,53,-0.10
2014,04,13,07,54,-0.10
2014,04,13,07,55,0.00
2014,04,13,07,56,0.00
2014,04,13,07,57,0.00
2014,04,13,07,58,0.00
2014,04,13,07,59,0.00
2014,04,13,08,00,0.00
2014,04,13,08,01,0.00
2014,04,13,08,02,0.10
2014,04,13,08,03,0.10
2014,04,13,08,04,0.10
2014,04,13,08,05,0.10
2014,04,13,08,06,0.20
2014,04,13,08,07,0.20
2014,04,13,08,08,0.30
2014,04,13,08,09,0.30
2014,04,13,08,10,0.40
2014,04,13,08,11,0.50
2014,04,13,08,12,0.60
2014,04,13,08,13,0.70
2014,04,13,08,14,0.80
2014,04,13,08,15,0.80
2014,04,13,08,16,0.90
2014,04,13,08,17,1.00
2014,04,13,08,18,1.20
2014,04,13,08,19,1.30
2014,04,13,08,20,1.30
2014,04,13,08,21,1.40
2014,04,13,08,22,1.50
2014,04,13,08,23,1.60
2014,04,13,08,24,1.70
2014,04,13,08,25,1.80
2014,04,13,08,26,1.90
2014,04,13,08,27,2.00
2014,04,13,08,28,2.00
2014,04,13,08,29,2.10
2014,04,13,08,30,2.20
2014,04,13,08,31,2.20
2014,04,13,08,32,2.30
2014,04,13,08,33,2.40
2014,04,13,08,34,2.40
2014,04,13,08,35,2.50
2014,04,13,08,36,2.60
2014,04,13,08,37,2.70
2014,04,13,08,38,2.70
2014,04,13,08,39,2.80
2014,04,13,08,40,2.90
2014,04,13,08,41,2.90
2014,04,13,08,42,3.00
2014,04,13,08,43,3.10
2014,04,13,08,44,3.20
2014,04,13,08,45,3.20
2014,04,13,08,46,3.30
2014,04,13,08,47,3.30
2014,04,13,08,48,3.40
2014,04,13,08,49,3.40
2014,04,13,08,50,3.50
2014,04,13,08,51,3.50
2014,04,13,08,52,3.60
2014,04,13,08,53,3.60
2014,04,13,08,54,3.60
2014,04,13,08,55,3.70
2014,04,13,08,56,3.80
2014,04,13,08,57,3.80
2014,04,13,08,58,3.90
2014,04,13,08,59,4.00
2014,04,13,09,00,4.00
2014,04,13,09,01,4.10
2014,04,13,09,02,4.20
2014,04,13,09,03,4.30
2014,04,13,09,04,4.40
2014,04,13,09,05,4.40
2014,04,13,09,06,4.50
2014,04,13,09,07,4.60
2014,04,13,09,08,4.60
2014,04,13,09,09,4.70
2014,04,13,09,10,4.80
2014,04,13,09,11,4.80
2014,04,13,09,12,4.90
2014,04,13,09,13,4.90
2014,04,13,09,14,4.90
2014,04,13,09,15,5.00
2014,04,13,09,16,5.00
2014,04,13,09,17,5.00
2014,04,13,09,18,5.10
2014,04,13,09,19,5.10
2014,04,13,09,20,5.10
2014,04,13,09,21,5.20
2014,04,13,09,22,5.20
2014,04,13,09,23,5.20
2014,04,13,09,24,5.30
2014,04,13,09,25,5.30
2014,04,13,09,26,5.30
2014,04,13,09,27,5.40
2014,04,13,09,28,5.40
2014,04,13,09,29,5.50
2014,04,13,09,30,5.60
2014,04,13,09,31,5.60
2014,04,13,09,32,5.70
2014,04,13,09,33,5.80
2014,04,13,09,34,5.80
2014,04,13,09,35,5.90
2014,04,13,09,36,6.00
2014,04,13,09,37,6.10
2014,04,13,09,38,6.10
2014,04,13,09,39,6.30
2014,04,13,09,40,6.40
2014,04,13,09,41,6.50
2014,04,13,09,42,6.50
2014,04,13,09,43,6.60
2014,04,13,09,44,6.70
2014,04,13,09,45,6.90
2014,04,13,09,46,7.00
2014,04,13,09,47,7.10
2014,04,13,09,48,7.20
2014,04,13,09,49,7.30
2014,04,13,09,50,7.40
2014,04,13,09,51,7.50
2014,04,13,09,52,7.60
2014,04,13,09,53,7.70
2014,04,13,09,54,7.80
2014,04,13,09,55,7.90
2014,04,13,09,56,8.00
2014,04,13,09,57,8.00
2014,04,13,09,58,8.10
2014,04,13,09,59,8.20
2014,04,13,10,00,8.30
2014,04,13,10,01,8.30
2014,04,13,10,02,8.40
2014,04,13,10,03,8.40
2014,04,13,10,04,8.40
2014,04,13,10,05,8.40
2014,04,13,10,06,8.40
2014,04,13,10,07,8.40
2014,04,13,10,08,8.40
2014,04,13,10,09,8.40
2014,04,13,10,10,8.40
2014,04,13,10,11,8.50
2014,04,13,10,12,8.60
2014,04,13,10,13,8.60
2014,04,13,10,14,8.70
2014,04,13,10,15,8.70
2014,04,13,10,16,8.80
2014,04,13,10,17,8.90
2014,04,13,10,18,9.00
2014,04,13,10,19,9.10
2014,04,13,10,20,9.10
2014,04,13,10,21,9.20
2014,04,13,10,22,9.30
2014,04,13,10,23,9.40
2014,04,13,10,24,9.40
2014,04,13,10,25,9.50
2014,04,13,10,26,9.50
2014,04,13,10,27,9.60
2014,04,13,10,28,9.60
2014,04,13,10,29,9.60
2014,04,13,10,30,9.70
2014,04,13,10,31,9.80
2014,04,13,10,32,9.80
2014,04,13,10,33,9.90
2014,04,13,10,34,9.90
2014,04,13,10,35,10.00
2014,04,13,10,36,10.00
2014,04,13,10,37,10.00
2014,04,13,10,38,9.90
2014,04,13,10,39,9.90
2014,04,13,10,40,9.90
2014,04,13,10,41,9.90
2014,04,13,10,42,10.00
2014,04,13,10,43,10.00
2014,04,13,10,44,10.10
2014,04,13,10,45,10.10
2014,04,13,10,46,10.10
2014,04,13,10,47,10.10
2014,04,13,10,48,10.00
2014,04,13,10,49,10.00
2014,04,13,10,50,10.00
2014,04,13,10,51,10.00
2014,04,13,10,52,10.10
2014,04,13,10,53,10.20
2014,04,13,10,54,10.30
2014,04,13,10,55,10.30
2014,04,13,10,56,10.40
2014,04,13,10,57,10.50
2014,04,13,10,58,10.60
2014,04,13,10,59,10.70
2014,04,13,11,00,10.90
2014,04,13,11,01,11.00
2014,04,13,11,02,11.10
2014,04,13,11,03,11.20
2014,04,13,11,04,11.30
2014,04,13,11,05,11.40
2014,04,13,11,06,11.50
2014,04,13,11,07,11.50
2014,04,13,11,08,11.70
2014,04,13,11,09,11.80
2014,04,13,11,10,11.90
2014,04,13,11,11,12.00
2014,04,13,11,12,12.20
2014,04,13,11,13,12.30
2014,04,13,11,14,12.40
2014,04,13,11,15,12.50
2014,04,13,11,16,12.50
2014,04,13,11,17,12.50
2014,04,13,11,18,12.60
2014,04,13,11,19,12.60
2014,04,13,11,20,12.60
2014,04,13,11,21,12.60
2014,04,13,11,22,12.60
2014,04,13,11,23,12.70
2014,04,13,11,24,12.80
2014,04,13,11,25,12.80
2014,04,13,11,26,12.90
2014,04,13,11,27,12.90
2014,04,13,11,28,12.90
2014,04,13,11,29,12.90
2014,04,13,11,30,12.90
2014,04,13,11,31,12.90
2014,04,13,11,32,12.90
2014,04,13,11,33,12.80
2014,04,13,11,34,12.80
2014,04,13,11,35,12.90
2014,04,13,11,36,12.90
2014,04,13,11,37,12.90
2014,04,13,11,38,13.00
2014,04,13,11,39,13.00
2014,04,13,11,40,13.00
2014,04,13,11,41,13.10
2014,04,13,11,42,13.10
2014,04,13,11,43,13.20
2014,04,13,11,44,13.20
2014,04,13,11,45,13.20
2014,04,13,11,46,13.20
2014,04,13,11,47,13.30
2014,04,13,11,48,13.30
2014,04,13,11,49,13.30
2014,04,13,11,50,13.40
2014,04,13,11,51,13.40
2014,04,13,11,52,13.40
2014,04,13,11,53,13.40
2014,04,13,11,54,13.40
2014,04,13,11,55,13.50
2014,04,13,11,56,13.50
2014,04,13,11,57,13.60
2014,04,13,11,58,13.70
2014,04,13,11,59,13.80
2014,04,13,12,00,14.00
2014,04,13,12,01,14.10
2014,04,13,12,02,14.20
2014,04,13,12,03,14.30
2014,04,13,12,04,14.50
2014,04,13,12,05,14.70
2014,04,13,12,06,14.90
2014,04,13,12,07,15.00
2014,04,13,12,08,15.20
2014,04,13,12,09,15.30
2014,04,13,12,10,15.50
2014,04,13,12,11,15.60
2014,04,13,12,12,15.70
2014,04,13,12,13,15.70
2014,04,13,12,14,15.80
2014,04,13,12,15,15.80
2014,04,13,12,16,15.80
2014,04,13,12,17,15.80
2014,04,13,12,18,15.70
2014,04,13,12,19,15.70
2014,04,13,12,20,15.60
2014,04,13,12,21,15.50
2014,04,13,12,22,15.50
2014,04,13,12,23,15.40
2014,04,13,12,24,15.40
2014,04,13,12,25,15.40
2014,04,13,12,26,15.40
2014,04,13,12,27,15.40
2014,04,13,12,28,15.50
2014,04,13,12,29,15.50
2014,04,13,12,30,15.50
2014,04,13,12,31,15.50
2014,04,13,12,32,15.60
2014,04,13,12,33,15.60
2014,04,13,12,34,15.60
2014,04,13,12,35,15.70
2014,04,13,12,36,15.90
2014,04,13,12,37,16.00
2014,04,13,12,38,16.00
2014,04,13,12,39,16.10
2014,04,13,12,40,16.20
2014,04,13,12,41,16.20
2014,04,13,12,42,16.30
2014,04,13,12,43,16.40
2014,04,13,12,44,16.50
2014,04,13,12,45,16.70
2014,04,13,12,46,16.80
2014,04,13,12,47,16.90
2014,04,13,12,48,17.00
2014,04,13,12,49,17.00
2014,04,13,12,50,17.10
2014,04,13,12,51,17.10
2014,04,13,12,52,17.20
2014,04,13,12,53,17.20
2014,04,13,12,54,17.30
2014,04,13,12,55,17.30
2014,04,13,12,56,17.40
2014,04,13,12,57,17.40
2014,04,13,12,58,17.40
2014,04,13,12,59,17.50
2014,04,13,13,00,17.60
2014,04,13,13,01,17.60
2014,04,13,13,02,17.70
2014,04,13,13,03,17.80
2014,04,13,13,04,17.80
2014,04,13,13,05,17.90
2014,04,13,13,06,18.10
2014,04,13,13,07,18.20
2014,04,13,13,08,18.20
2014,04,13,13,09,18.30
2014,04,13,13,10,18.20
2014,04,13,13,11,18.20
2014,04,13,13,12,18.20
2014,04,13,13,13,18.20
2014,04,13,13,14,18.20
2014,04,13,13,15,18.20
2014,04,13,13,16,18.20
2014,04,13,13,17,18.30
2014,04,13,13,18,18.30
2014,04,13,13,19,18.30
2014,04,13,13,20,18.40
2014,04,13,13,21,18.40
2014,04,13,13,22,18.50
2014,04,13,13,23,18.60
2014,04,13,13,24,18.60
2014,04,13,13,25,18.60
2014,04,13,13,26,18.70
2014,04,13,13,27,18.70
2014,04,13,13,28,18.70
2014,04,13,13,29,18.70
2014,04,13,13,30,18.70
2014,04,13,13,31,18.80
2014,04,13,13,32,18.80
2014,04,13,13,33,18.80
2014,04,13,13,34,18.90
2014,04,13,13,35,18.90
2014,04,13,13,36,19.00
2014,04,13,13,37,19.10
2014,04,13,13,38,19.20
2014,04,13,13,39,19.30
2014,04,13,13,40,19.30
2014,04,13,13,41,19.40
2014,04,13,13,42,19.40
2014,04,13,13,43,19.50
2014,04,13,13,44,19.50
2014,04,13,13,45,19.50
2014,04,13,13,46,19.50
2014,04,13,13,47,19.50
2014,04,13,13,48,19.40
2014,04,13,13,49,19.40
2014,04,13,13,50,19.30
2014,04,13,13,51,19.30
2014,04,13,13,52,19.40
2014,04,13,13,53,19.40
2014,04,13,13,54,19.40
2014,04,13,13,55,19.40
2014,04,13,13,56,19.40
2014,04,13,13,57,19.40
2014,04,13,13,58,19.50
2014,04,13,13,59,19.60
2014,04,13,14,00,19.60
2014,04,13,14,01,19.70
2014,04,13,14,02,19.80
2014,04,13,14,03,19.80
2014,04,13,14,04,19.90
2014,04,13,14,05,19.90
2014,04,13,14,06,20.00
2014,04,13,14,07,19.90
2014,04,13,14,08,19.90
2014,04,13,14,09,19.80
2014,04,13,14,10,19.80
2014,04,13,14,11,19.80
2014,04,13,14,12,19.80
2014,04,13,14,13,19.80
2014,04,13,14,14,19.70
2014,04,13,14,15,19.70
2014,04,13,14,16,19.60
2014,04,13,14,17,19.60
2014,04,13,14,18,19.70
2014,04,13,14,19,19.70
2014,04,13,14,20,19.80
2014,04,13,14,21,19.80
2014,04,13,14,22,19.80
2014,04,13,14,23,19.80
2014,04,13,14,24,19.80
2014,04,13,14,25,19.70
2014,04,13,14,26,19.70
2014,04,13,14,27,19.70
2014,04,13,14,28,19.60
2014,04,13,14,29,19.60
2014,04,13,14,30,19.60
2014,04,13,14,31,19.60
2014,04,13,14,32,19.60
2014,04,13,14,33,19.60
2014,04,13,14,34,19.60
2014,04,13,14,35,19.60
2014,04,13,14,36,19.50
2014,04,13,14,37,19.60
2014,04,13,14,38,19.60
2014,04,13,14,39,19.70
2014,04,13,14,40,19.70
2014,04,13,14,41,19.80
2014,04,13,14,42,19.80
2014,04,13,14,43,19.80
2014,04,13,14,44,19.70
2014,04,13,14,45,19.70
2014,04,13,14,46,19.80
2014,04,13,14,47,19.80
2014,04,13,14,48,19.80
2014,04,13,14,49,19.90
2014,04,13,14,50,19.90
2014,04,13,14,51,19.90
2014,04,13,14,52,20.00
2014,04,13,14,53,20.00
2014,04,13,14,54,20.10
2014,04,13,14,55,20.10
2014,04,13,14,56,20.20
2014,04,13,14,57,20.20
2014,04,13,14,58,20.20
2014,04,13,14,59,20.20
2014,04,13,15,00,20.20
2014,04,13,15,01,20.20
2014,04,13,15,02,20.20
2014,04,13,15,03,20.20
2014,04,13,15,04,20.20
2014,04,13,15,05,20.20
2014,04,13,15,06,20.20
2014,04,13,15,07,20.30
2014,04,13,15,08,20.40
2014,04,13,15,09,20.40
2014,04,13,15,10,20.30
2014,04,13,15,11,20.40
2014,04,13,15,12,20.40
2014,04,13,15,13,20.40
2014,04,13,15,14,20.50
2014,04,13,15,15,20.50
2014,04,13,15,16,20.60
2014,04,13,15,17,20.60
2014,04,13,15,18,20.60
2014,04,13,15,19,20.60
2014,04,13,15,20,20.60
2014,04,13,15,21,20.60
2014,04,13,15,22,20.70
2014,04,13,15,23,20.70
2014,04,13,15,24,20.70
2014,04,13,15,25,20.70
2014,04,13,15,26,20.60
2014,04,13,15,27,20.60
2014,04,13,15,28,20.60
2014,04,13,15,29,20.60
2014,04,13,15,30,20.60
2014,04,13,15,31,20.50
2014,04,13,15,32,20.50
2014,04,13,15,33,20.50
2014,04,13,15,34,20.40
2014,04,13,15,35,20.40
2014,04,13,15,36,20.50
2014,04,13,15,37,20.50
2014,04,13,15,38,20.50
2014,04,13,15,39,20.50
2014,04,13,15,40,20.50
2014,04,13,15,41,20.50
2014,04,13,15,42,20.50
2014,04,13,15,43,20.50
2014,04,13,15,44,20.50
2014,04,13,15,45,20.50
2014,04,13,15,46,20.60
2014,04,13,15,47,20.60
2014,04,13,15,48,20.60
2014,04,13,15,49,20.60
2014,04,13,15,50,20.60
2014,04,13,15,51,20.60
2014,04,13,15,52,20.60
2014,04,13,15,53,20.60
2014,04,13,15,54,20.50
2014,04,13,15,55,20.50
2014,04,13,15,56,20.40
2014,04,13,15,57,20.50
2014,04,13,15,58,20.50
2014,04,13,15,59,20.50
2014,04,13,16,00,20.50
2014,04,13,16,01,20.50
2014,04,13,16,02,20.40
2014,04,13,16,03,20.30
2014,04,13,16,04,20.30
2014,04,13,16,05,20.30
2014,04,13,16,06,20.30
2014,04,13,16,07,20.30
2014,04,13,16,08,20.30
2014,04,13,16,09,20.40
2014,04,13,16,10,20.40
2014,04,13,16,11,20.40
2014,04,13,16,12,20.30
2014,04,13,16,13,20.30
2014,04,13,16,14,20.20
2014,04,13,16,15,20.20
2014,04,13,16,16,20.30
2014,04,13,16,17,20.30
2014,04,13,16,18,20.40
2014,04,13,16,19,20.30
2014,04,13,16,20,20.30
2014,04,13,16,21,20.40
2014,04,13,16,22,20.40
2014,04,13,16,23,20.40
2014,04,13,16,24,20.40
2014,04,13,16,25,20.40
2014,04,13,16,26,20.40
2014,04,13,16,27,20.50
2014,04,13,16,28,20.50
2014,04,13,16,29,20.50
2014,04,13,16,30,20.50
2014,04,13,16,31,20.50
2014,04,13,16,32,20.50
2014,04,13,16,33,20.40
2014,04,13,16,34,20.40
2014,04,13,16,35,20.40
2014,04,13,16,36,20.40
2014,04,13,16,37,20.40
2014,04,13,16,38,20.30
2014,04,13,16,39,20.30
2014,04,13,16,40,20.30
2014,04,13,16,41,20.20
2014,04,13,16,42,20.20
2014,04,13,16,43,20.20
2014,04,13,16,44,20.20
2014,04,13,16,45,20.20
2014,04,13,16,46,20.20
2014,04,13,16,47,20.20
2014,04,13,16,48,20.10
2014,04,13,16,49,20.10
2014,04,13,16,50,20.10
2014,04,13,16,51,20.10
2014,04,13,16,52,20.10
2014,04,13,16,53,20.10
2014,04,13,16,54,20.10
2014,04,13,16,55,20.10
2014,04,13,16,56,20.00
2014,04,13,16,57,19.90
2014,04,13,16,58,19.90
2014,04,13,16,59,19.90
2014,04,13,17,00,19.80
2014,04,13,17,01,19.80
2014,04,13,17,02,19.80
2014,04,13,17,03,19.80
2014,04,13,17,04,19.80
2014,04,13,17,05,19.70
2014,04,13,17,06,19.70
2014,04,13,17,07,19.70
2014,04,13,17,08,19.70
2014,04,13,17,09,19.70
2014,04,13,17,10,19.70
2014,04,13,17,11,19.70
2014,04,13,17,12,19.70
2014,04,13,17,13,19.70
2014,04,13,17,14,19.70
2014,04,13,17,15,19.70
2014,04,13,17,16,19.70
2014,04,13,17,17,19.80
2014,04,13,17,18,19.80
2014,04,13,17,19,19.80
2014,04,13,17,20,19.80
2014,04,13,17,21,19.80
2014,04,13,17,22,19.80
2014,04,13,17,23,19.70
2014,04,13,17,24,19.70
2014,04,13,17,25,19.70
2014,04,13,17,26,19.70
2014,04,13,17,27,19.70
2014,04,13,17,28,19.60
2014,04,13,17,29,19.60
2014,04,13,17,30,19.60
2014,04,13,17,31,19.60
2014,04,13,17,32,19.60
2014,04,13,17,33,19.50
2014,04,13,17,34,19.50
2014,04,13,17,35,19.50
2014,04,13,17,36,19.40
2014,04,13,17,37,19.40
2014,04,13,17,38,19.40
2014,04,13,17,39,19.40
2014,04,13,17,40,19.30
2014,04,13,17,41,19.30
2014,04,13,17,42,19.20
2014,04,13,17,43,19.20